Lid_Strength_Index
9 10 13 12 11 9 10 12 12 10 8 10 11 11 10 8 8 8 7 7 6 5 4 3 2 2 2 2 2 1 1 2 1 2 2 2 2 2 2 2 2 2 0 0
10 12 10 9 9 10 11 12 12 9 8 9 11 11 10 9 8 7 7 7 6 6 5 4 3 3 2 2 2 2 2 2 1 1 2 2 2 2 3 2 1 0 0 -0
12 10 8 9 10 10 12 13 11 10 9 9 11 13 12 9 8 7 6 6 6 6 5 5 4 3 3 3 2 2 2 1 1 1 2 1 1 1 1 1 1 1 0 0
11 9 9 10 11 11 14 9 9 9 11 15 10 17 12 11 10 9 8 7 6 6 5 4 4 4 3 3 2 2 2 1 1 2 2 2 2 3 2 2 2 1 0 1
10 10 10 11 10 9 11 8 9 10 12 13 13 16 13 12 12 10 8 7 6 5 5 5 4 3 3 2 2 2 2 1 1 2 2 2 2 2 2 2 1 2 1 1
9 8 9 9 8 8 7 9 11 12 13 15 13 15 14 13 11 10 8 7 6 5 5 4 3 3 3 2 2 2 2 2 2 2 2 2 2 2 2 2 2 1 2 2
11 10 9 8 11 10 11 13 16 16 17 17 13 14 13 10 8 8 8 7 6 5 5 4 4 4 3 3 2 2 2 2 2 2 2 2 2 2 2 2 2 2 2 2
14 14 11 9 10 11 12 12 16 18 18 15 13 16 12 8 7 6 6 6 6 6 5 5 4 4 3 3 2 2 2 2 2 2 2 1 1 2 2 1 2 2 2 2
15 13 10 9 9 10 12 13 12 15 15 16 14 12 9 8 8 7 7 7 6 6 5 5 4 4 3 3 3 2 2 2 2 2 1 1 1 1 2 2 2 1 2 1
12 14 11 9 10 10 11 11 14 16 18 18 15 15 15 11 10 8 8 8 7 6 5 5 4 4 3 3 2 2 2 2 2 1 1 1 1 1 1 1 2 1 1 1
12 13 12 10 12 13 13 14 14 14 15 17 17 15 11 11 9 9 8 7 7 6 5 5 4 3 3 3 2 2 2 2 2 2 1 1 1 1 1 1 1 1 1 1
11 14 14 12 10 10 11 12 13 15 15 16 16 14 8 9 8 8 8 7 6 6 5 5 4 4 3 3 3 3 2 2 2 1 1 1 1 1 1 1 1 2 2 1
11 13 15 13 12 10 10 11 13 13 14 15 16 14 8 8 8 7 7 7 7 6 6 5 4 4 4 3 3 3 2 2 2 2 2 2 2 1 1 1 2 2 2 2
8 14 14 15 13 12 12 11 11 13 14 14 14 14 10 9 8 7 7 6 6 6 5 5 5 4 4 3 3 3 3 2 2 2 2 2 2 1 2 2 2 2 1 2
10 13 14 13 11 10 10 10 10 12 12 13 12 12 10 9 8 7 7 6 6 6 6 5 5 4 4 4 3 3 2 2 2 2 2 2 2 2 1 1 1 1 1 1
11 12 12 13 10 10 11 10 10 10 10 12 12 11 8 8 7 7 6 6 7 6 5 5 5 4 4 4 3 3 3 2 2 2 2 2 2 2 2 2 1 1 1 2
12 12 13 15 11 11 13 11 10 10 10 11 13 10 8 8 8 7 7 6 6 6 5 5 5 4 4 3 3 3 3 2 2 2 2 2 2 2 2 2 2 2 2 2
12 12 13 14 13 18 12 9 8 12 11 10 10 9 9 8 7 7 5 6 6 5 5 5 4 4 3 3 3 3 2 2 2 3 3 2 2 2 2 2 2 2 2 2
11 11 13 15 16 13 11 10 11 12 13 9 10 9 8 7 7 7 5 5 5 5 4 4 4 4 3 3 3 3 3 3 3 3 2 2 2 2 2 2 2 2 2 3
12 12 12 14 17 17 13 9 7 8 15 9 9 9 9 8 11 10 5 5 5 4 4 4 3 4 5 4 2 3 3 3 3 3 2 2 2 2 2 3 4 5 5 5
13 13 14 15 15 14 9 8 7 15 14 8 7 8 8 9 8 6 5 5 4 4 4 3 3 3 4 4 2 3 3 3 2 2 2 2 2 3 4 6 5 6 6 6
14 15 15 15 17 18 8 8 12 10 8 7 7 7 7 7 6 6 5 5 4 4 4 4 4 3 3 2 2 3 4 2 2 2 2 3 5 5 6 6 6 7 8 9
13 12 13 12 13 8 8 9 7 7 7 7 7 6 6 6 6 5 5 5 4 4 4 3 4 4 4 3 2 3 3 2 2 3 4 5 6 6 6 7 8 9 8 8
10 9 12 11 10 9 8 7 6 6 6 5 5 5 5 6 5 5 5 5 5 4 4 4 4 4 5 4 2 2 2 3 3 5 6 6 6 7 7 8 7 8 7 6
9 9 10 10 9 8 7 6 6 5 5 5 4 5 5 5 5 5 5 5 4 4 4 4 4 4 4 4 3 2 2 3 4 5 6 6 6 6 7 8 7 5 6 5
9 9 11 12 8 8 8 6 5 6 5 5 5 5 4 4 5 4 5 4 4 4 4 4 4 4 3 3 3 2 4 5 4 3 5 5 6 6 7 6 7 9 9 10